Weather History for PAGY - February, 2014

Change the Weather History Date:

Saturday, February 8, 2014

  Actual Average Record
Temperature  
Mean Temperature 20 °F -  
Max Temperature 21 °F 32 °F 51 °F (1982)
Min Temperature 18 °F 24 °F -8 °F (1990)
Degree Days  
Heating Degree Days 46    
Moisture  
Dew Point -1 °F    
Average Humidity 42    
Maximum Humidity 44    
Minimum Humidity 38    
Precipitation  
Precipitation 0.00 in - - ()
Sea Level Pressure  
Sea Level Pressure 30.30 in    
Wind  
Wind Speed 21 mph (NNE)    
Max Wind Speed 26 mph    
Max Gust Speed 39 mph    
Visibility 10 miles    
Events      
Averages and records for this station are not official NWS values.
T = Trace of Precipitation, MM = Missing Value Source: NWS Daily Summary

Daily Weather History Graph

Daily Weather History Graph

Search for Another Location

Airport or City:

Trip Planner

Search our weather history database for the weather conditions in past years. The results will help you decide how hot, cold, wet, or windy it might be!

Date:

Astronomy

Feb. 08, 2014 Rise Set
Actual Time 7:54 AM AKST 4:37 PM AKST
Civil Twilight 7:10 AM AKST 5:21 PM AKST
Nautical Twilight 6:21 AM AKST 6:10 PM AKST
Astronomical Twilight 5:34 AM AKST 6:57 PM AKST
Moon 11:10 AM AKST (2/8) 3:38 AM AKST (2/8)
Length of Visible Light 10h 11m
Length of Day
8h 42m
Waxing Gibbous, 70% of the Moon is Illuminated
Feb 8
Waxing Gibbous
Feb 14
Full
Feb 22
Last Quarter
Feb 28
New
Mar 8
First Quarter

Hourly Weather History & Observations

Time (AKST) Temp. Windchill Dew Point Humidity Pressure Visibility Wind Dir Wind Speed Gust Speed Precip Events Conditions
12:53 AM 19.9 °F 4.8 °F -0.0 °F 42% 30.30 in 10.0 mi NNE 18.4 mph 33.4 mph N/A   Clear
1:53 AM 19.9 °F 2.5 °F -0.0 °F 42% 30.30 in 10.0 mi NNE 25.3 mph 32.2 mph N/A   Clear
2:53 AM 19.9 °F 4.3 °F -0.0 °F 42% 30.31 in 10.0 mi NNE 19.6 mph 29.9 mph N/A   Clear
3:53 AM 19.0 °F 2.4 °F -0.0 °F 43% 30.30 in 10.0 mi NNE 21.9 mph 32.2 mph N/A   Clear
4:53 AM 18.0 °F 1.3 °F -0.9 °F 44% 30.31 in 10.0 mi NNE 20.7 mph 32.2 mph N/A   Clear
5:53 AM 18.0 °F 1.3 °F -0.9 °F 44% 30.32 in 10.0 mi NNE 20.7 mph 33.4 mph N/A   Clear
6:53 AM 19.0 °F 2.7 °F -0.0 °F 43% 30.32 in 10.0 mi NNE 20.7 mph 29.9 mph N/A   Clear
7:53 AM 19.0 °F 1.3 °F -0.9 °F 42% 30.32 in 10.0 mi NNE 25.3 mph 39.1 mph N/A   Clear
8:53 AM 18.0 °F 0.9 °F -0.9 °F 44% 30.35 in 10.0 mi NNE 21.9 mph 32.2 mph N/A   Clear
9:53 AM 19.0 °F 2.7 °F -0.9 °F 42% 30.35 in 10.0 mi NNE 20.7 mph 32.2 mph N/A   Clear
10:53 AM 19.9 °F 3.2 °F -0.9 °F 40% 30.35 in 10.0 mi NNE 23.0 mph 33.4 mph N/A   Clear
11:53 AM 19.9 °F 2.2 °F -0.9 °F 40% 30.33 in 10.0 mi NNE 26.5 mph 39.1 mph N/A   Clear
12:53 PM 21.0 °F 6.2 °F -0.9 °F 38% 30.32 in 10.0 mi NNE 18.4 mph 34.5 mph N/A   Clear
1:53 PM 21.9 °F 7.8 °F -0.0 °F 38% 30.31 in 10.0 mi NNE 17.3 mph 25.3 mph N/A   Clear
2:53 PM 21.0 °F 5.4 °F -0.0 °F 40% 30.30 in 10.0 mi NNE 20.7 mph 32.2 mph N/A   Clear
3:53 PM 19.9 °F 4.8 °F -0.0 °F 42% 30.30 in 10.0 mi NNE 18.4 mph 28.8 mph N/A   Clear
4:53 PM 19.9 °F 4.3 °F -0.9 °F 40% 30.28 in 10.0 mi NNE 19.6 mph 28.8 mph N/A   Clear
5:53 PM 19.0 °F 4.5 °F -0.9 °F 42% 30.29 in 10.0 mi NNE 16.1 mph 28.8 mph N/A   Clear
6:53 PM 19.0 °F 4.0 °F -0.9 °F 42% 30.28 in 10.0 mi North 17.3 mph 34.5 mph N/A   Clear
7:53 PM 19.0 °F 4.0 °F -0.9 °F 42% 30.27 in 10.0 mi NNE 17.3 mph 34.5 mph N/A   Clear
8:53 PM 19.0 °F 3.2 °F -2.0 °F 40% 30.26 in 10.0 mi NNE 19.6 mph 32.2 mph N/A   Clear
9:53 PM 18.0 °F 1.3 °F -0.9 °F 44% 30.26 in 10.0 mi NNE 20.7 mph 34.5 mph N/A   Clear
10:53 PM 18.0 °F -0.2 °F -2.0 °F 41% 30.25 in 10.0 mi NNE 25.3 mph 31.1 mph N/A   Clear
11:53 PM 18.0 °F -0.2 °F -2.0 °F 41% 30.25 in 10.0 mi NNE 25.3 mph 33.4 mph N/A   Overcast